Date,Time,Wetness (Wet Dry or Ice),Wind Speed (m/s),Temperature (C),Humidity (%),Pressure (mb),Radiation (W/m^2)
2020-11-12,02:05:00,DRY,6.40,9.70,89.0,776.00,1.8
2020-11-12,02:10:00,DRY,3.87,9.60,89.0,776.00,1.1
2020-11-12,02:15:00,DRY,4.75,9.50,90.0,776.00,1.6
2020-11-12,02:20:00,DRY,4.53,9.47,90.3,776.00,1.6
2020-11-12,02:25:00,DRY,3.75,9.35,91.0,775.50,1.2
2020-11-12,02:30:00,DRY,5.40,9.33,91.0,775.00,1.6
2020-11-12,02:35:00,DRY,3.95,9.30,91.5,775.00,1.9
2020-11-12,02:40:00,DRY,4.57,9.37,92.0,775.00,1.9
2020-11-12,02:45:00,DRY,2.45,9.40,92.0,775.00,1.8
2020-11-12,02:50:00,DRY,4.20,9.53,91.7,775.00,2.3
2020-11-12,02:55:00,DRY,4.20,9.55,91.5,775.00,1.5
2020-11-12,03:00:00,DRY,3.87,9.53,92.0,775.00,2.1
2020-11-12,03:05:00,DRY,5.45,9.80,89.5,775.50,1.6
2020-11-12,03:10:00,DRY,5.40,9.83,89.3,775.00,1.6
2020-11-12,03:15:00,DRY,4.65,9.70,90.0,775.00,1.9
2020-11-12,03:20:00,DRY,4.77,10.13,87.3,775.00,1.5
2020-11-12,03:25:00,DRY,7.20,10.20,87.0,775.00,1.5
2020-11-12,03:30:00,DRY,6.77,10.23,86.0,775.00,1.9
2020-11-12,03:35:00,DRY,6.60,10.25,87.0,775.00,1.4
2020-11-12,03:40:00,DRY,7.03,10.27,86.7,775.00,1.3
2020-11-12,03:45:00,DRY,5.85,10.40,86.5,775.00,0.8
2020-11-12,03:50:00,DRY,5.83,10.43,85.0,775.00,1.3
2020-11-12,03:55:00,DRY,4.05,10.45,84.5,775.00,1.6
2020-11-12,04:00:00,DRY,4.83,10.57,84.3,775.00,1.0
2020-11-12,04:05:00,DRY,5.00,10.60,84.0,775.00,1.5
2020-11-12,04:10:00,DRY,5.00,10.63,83.3,775.00,1.6
2020-11-12,04:15:00,DRY,6.45,10.65,84.0,775.00,1.5
2020-11-12,04:20:00,DRY,6.50,10.73,83.7,775.00,1.6
2020-11-12,04:25:00,DRY,5.75,10.70,83.5,775.00,1.4
2020-11-12,04:30:00,DRY,6.00,10.73,84.3,775.00,1.2
2020-11-12,04:35:00,DRY,4.95,10.75,83.5,775.00,1.5
2020-11-12,04:40:00,DRY,5.57,10.83,83.7,775.00,1.8
2020-11-12,04:45:00,DRY,4.20,10.75,84.0,775.00,1.8
2020-11-12,04:50:00,DRY,5.80,10.70,84.3,775.00,1.7
2020-11-12,04:55:00,DRY,5.55,10.70,84.0,775.00,1.1
2020-11-12,05:00:00,DRY,5.27,10.60,84.7,775.00,1.9
2020-11-12,05:05:00,DRY,6.15,10.60,85.0,775.00,1.8
2020-11-12,05:10:00,DRY,5.03,10.53,85.3,775.00,1.6
2020-11-12,05:15:00,DRY,6.85,10.65,84.0,775.00,1.4
2020-11-12,05:20:00,DRY,4.87,10.63,84.7,775.00,1.7
2020-11-12,05:25:00,DRY,5.90,10.65,84.5,775.00,1.4
2020-11-12,05:30:00,DRY,5.00,10.67,82.7,775.00,1.3
2020-11-12,05:35:00,DRY,5.45,10.55,83.5,775.00,1.2
2020-11-12,05:40:00,DRY,4.67,10.53,84.0,775.00,1.6
2020-11-12,05:45:00,DRY,6.45,10.45,85.0,775.00,1.5
2020-11-12,05:50:00,DRY,5.13,10.37,85.3,775.00,1.5
2020-11-12,05:55:00,DRY,4.55,10.40,84.0,775.00,1.4
2020-11-12,06:00:00,DRY,4.23,10.47,83.0,775.00,1.4
2020-11-12,06:05:00,DRY,4.20,10.40,84.0,775.00,1.7
2020-11-12,06:10:00,DRY,3.80,10.40,84.3,775.00,1.3
2020-11-12,06:15:00,DRY,4.00,10.40,85.0,775.00,1.5
2020-11-12,06:20:00,DRY,4.67,10.30,85.0,775.00,1.5
2020-11-12,06:25:00,DRY,4.60,10.40,85.0,775.00,1.5
2020-11-12,06:30:00,DRY,4.70,10.30,85.3,775.00,1.9
2020-11-12,06:35:00,DRY,4.60,10.20,85.0,775.00,1.6
2020-11-12,06:40:00,DRY,4.33,10.20,85.7,775.00,1.4
2020-11-12,06:45:00,DRY,5.10,10.20,86.0,775.00,1.3
2020-11-12,06:50:00,DRY,4.43,10.20,86.0,775.00,1.3
2020-11-12,06:55:00,DRY,4.50,10.25,86.0,775.00,1.5
2020-11-12,07:00:00,DRY,4.53,10.23,85.7,775.00,1.4
2020-11-12,07:05:00,DRY,5.05,10.30,82.5,775.00,1.4
2020-11-12,07:10:00,DRY,4.60,10.60,79.7,775.33,1.4
2020-11-12,07:15:00,DRY,5.85,10.70,77.0,775.50,1.4
2020-11-12,07:20:00,DRY,5.03,10.67,79.7,776.00,1.8
2020-11-12,07:25:00,DRY,5.55,10.60,80.0,776.00,1.6
2020-11-12,07:30:00,DRY,5.13,10.67,80.0,776.00,2.7
2020-11-12,07:35:00,DRY,5.10,10.75,79.5,776.00,3.5
2020-11-12,07:40:00,DRY,4.07,10.83,78.3,776.00,7.0
2020-11-12,07:45:00,DRY,4.50,10.90,78.0,776.00,11.7
2020-11-12,07:50:00,DRY,3.13,10.90,77.0,776.00,15.5
2020-11-12,07:55:00,DRY,2.75,10.95,78.5,776.00,18.5
2020-11-12,08:00:00,DRY,4.60,10.90,80.3,776.00,24.4
2020-11-12,08:05:00,DRY,4.50,10.90,81.0,776.00,31.2
2020-11-12,08:10:00,DRY,2.27,10.87,81.7,776.00,45.6
2020-11-12,08:15:00,DRY,4.00,10.90,82.0,776.00,54.5
2020-11-12,08:20:00,DRY,2.30,10.80,82.3,776.00,62.4
2020-11-12,08:25:00,DRY,3.95,10.90,82.0,776.00,86.1
2020-11-12,08:30:00,DRY,3.63,11.00,80.0,776.00,127.9
2020-11-12,08:35:00,DRY,3.65,11.15,78.5,776.00,140.4
2020-11-12,08:40:00,DRY,3.07,11.20,78.0,776.00,98.2
2020-11-12,08:45:00,DRY,3.85,11.20,78.0,776.00,62.9
2020-11-12,08:50:00,DRY,3.90,11.17,77.7,776.00,88.4
2020-11-12,08:55:00,DRY,3.25,11.20,76.5,776.00,104.5
2020-11-12,09:00:00,DRY,4.20,11.30,76.0,776.33,121.5
2020-11-12,09:05:00,DRY,3.45,11.30,75.0,776.50,135.1
2020-11-12,09:10:00,DRY,3.50,11.37,74.0,776.00,133.8
2020-11-12,09:15:00,DRY,3.05,11.30,74.0,776.50,143.2
2020-11-12,09:20:00,DRY,4.73,11.47,73.3,777.00,300.3
2020-11-12,09:25:00,DRY,2.75,11.60,75.0,776.00,326.3
2020-11-12,09:30:00,DRY,3.77,11.67,75.0,777.00,331.3
2020-11-12,09:35:00,DRY,3.50,11.90,73.5,777.00,319.1
2020-11-12,09:40:00,DRY,3.73,11.87,72.3,776.33,220.2
2020-11-12,09:45:00,DRY,3.95,11.80,74.5,776.50,227.6
2020-11-12,09:50:00,DRY,4.50,11.87,71.0,776.00,236.6
2020-11-12,09:55:00,DRY,4.70,12.20,68.0,776.50,530.0
2020-11-12,10:00:00,DRY,4.10,12.50,69.3,777.00,520.1
2020-11-12,10:05:00,DRY,3.40,12.80,66.0,776.50,643.5
2020-11-12,10:10:00,DRY,4.90,13.10,65.0,776.67,610.7
2020-11-12,10:15:00,DRY,4.35,13.00,63.5,776.50,489.0
2020-11-12,10:20:00,DRY,3.00,12.97,64.0,777.00,423.0
2020-11-12,10:25:00,DRY,2.70,13.15,63.0,777.00,516.5
2020-11-12,10:30:00,DRY,3.87,13.07,65.0,776.33,502.3
2020-11-12,10:35:00,DRY,5.10,13.00,69.5,776.50,406.8
2020-11-12,10:40:00,DRY,4.37,12.73,70.0,776.67,331.8
2020-11-12,10:45:00,DRY,3.80,12.70,70.0,777.00,280.2
2020-11-12,10:50:00,DRY,4.53,12.60,71.0,777.00,238.6
2020-11-12,10:55:00,DRY,3.05,12.45,69.5,777.00,244.8
2020-11-12,11:00:00,DRY,3.70,12.57,69.7,777.00,265.7
2020-11-12,11:05:00,DRY,3.85,12.65,68.5,777.00,284.3
2020-11-12,11:10:00,DRY,4.33,12.53,71.7,777.00,288.9
2020-11-12,11:15:00,DRY,3.00,12.50,69.5,777.00,282.6
2020-11-12,11:20:00,DRY,4.30,12.70,67.7,776.67,363.0
2020-11-12,11:25:00,DRY,3.70,13.05,65.0,777.00,630.7
2020-11-12,11:30:00,DRY,4.63,13.43,63.0,777.00,667.1
2020-11-12,11:35:00,DRY,3.45,13.50,63.0,776.00,553.7
2020-11-12,11:40:00,DRY,3.10,13.27,67.7,776.67,416.5
2020-11-12,11:45:00,DRY,1.65,13.05,72.0,777.00,330.5
2020-11-12,11:50:00,DRY,4.10,12.67,73.7,777.00,442.3
2020-11-12,11:55:00,DRY,3.25,13.05,70.0,777.00,398.9
2020-11-12,12:00:00,DRY,2.93,12.87,71.7,777.00,289.4
2020-11-12,12:05:00,DRY,5.10,12.65,69.5,777.00,230.1
2020-11-12,12:10:00,DRY,3.17,12.77,70.7,777.00,564.5
2020-11-12,12:15:00,DRY,4.90,13.30,68.0,776.50,723.9
2020-11-12,12:20:00,DRY,2.50,13.47,70.3,776.33,814.4
2020-11-12,12:25:00,DRY,2.80,13.80,64.5,776.00,804.2
2020-11-12,12:30:00,DRY,4.00,14.10,61.3,776.00,789.7
2020-11-12,12:35:00,DRY,3.45,13.75,68.5,777.00,784.5
2020-11-12,12:40:00,DRY,4.20,13.67,66.0,776.00,595.0
2020-11-12,12:45:00,DRY,2.55,13.70,67.5,776.00,550.8
2020-11-12,12:50:00,DRY,5.33,13.70,63.3,776.00,529.5
2020-11-12,12:55:00,DRY,2.55,13.60,69.5,776.00,801.6
2020-11-12,13:00:00,DRY,4.37,14.40,60.3,776.00,865.5
2020-11-12,13:05:00,DRY,4.70,14.05,59.0,776.00,599.1
2020-11-12,13:10:00,DRY,2.63,13.70,66.0,776.00,471.5
2020-11-12,13:15:00,DRY,3.85,13.55,67.0,776.00,474.8
2020-11-12,13:20:00,DRY,3.63,13.40,69.7,776.00,430.8
2020-11-12,13:25:00,DRY,2.40,13.30,68.0,776.00,464.4
2020-11-12,13:30:00,DRY,1.70,13.40,65.0,776.00,521.0
2020-11-12,13:35:00,DRY,6.10,13.80,60.0,776.00,513.6
2020-11-12,13:40:00,DRY,3.17,13.70,62.0,776.00,445.3
2020-11-12,13:45:00,DRY,3.80,13.55,62.5,776.00,408.8
2020-11-12,13:50:00,DRY,3.67,13.43,62.0,776.00,425.2
2020-11-12,13:55:00,DRY,3.60,13.45,63.5,776.00,434.0
2020-11-12,14:00:00,DRY,3.20,13.67,62.0,776.00,473.6
2020-11-12,14:05:00,DRY,2.70,13.50,62.5,776.00,389.6
2020-11-12,14:10:00,DRY,3.47,13.53,62.3,776.00,364.0
2020-11-12,14:15:00,DRY,3.40,13.35,63.0,776.00,342.3
2020-11-12,14:20:00,DRY,3.03,13.50,61.7,775.67,371.0
2020-11-12,14:25:00,DRY,4.55,13.35,62.5,776.00,494.1
2020-11-12,14:30:00,DRY,3.67,13.53,62.0,775.67,535.3
2020-11-12,14:35:00,DRY,2.35,13.55,63.0,775.00,543.3
2020-11-12,14:40:00,DRY,3.83,13.60,62.3,775.00,496.0
2020-11-12,14:45:00,DRY,3.25,13.75,61.5,775.00,549.0
2020-11-12,14:50:00,DRY,3.07,13.80,63.0,775.33,588.0
2020-11-12,14:55:00,DRY,1.70,13.70,65.0,775.00,644.9
2020-11-12,15:00:00,DRY,2.23,14.13,60.7,775.00,642.3
2020-11-12,15:05:00,DRY,3.10,14.10,60.5,775.00,595.1
2020-11-12,15:10:00,DRY,1.90,13.60,67.0,775.00,522.6
2020-11-12,15:15:00,DRY,3.95,13.95,61.0,775.00,453.8
2020-11-12,15:20:00,DRY,3.07,14.23,59.3,775.00,427.7
2020-11-12,15:25:00,DRY,4.15,13.90,61.0,775.00,395.1
2020-11-12,15:30:00,DRY,3.37,13.80,61.0,775.00,432.7
2020-11-12,15:35:00,DRY,4.05,14.15,59.5,775.00,458.5
2020-11-12,15:40:00,DRY,3.03,14.03,60.3,775.00,451.8
2020-11-12,15:45:00,DRY,3.20,14.00,61.5,775.50,483.8
2020-11-12,15:50:00,DRY,2.30,13.67,67.7,775.00,441.9
2020-11-12,15:55:00,DRY,2.85,13.25,69.5,775.50,455.0
2020-11-12,16:00:00,DRY,1.87,13.10,72.3,775.67,374.6
2020-11-12,16:05:00,DRY,2.75,12.65,75.0,776.00,440.8
2020-11-12,16:10:00,DRY,2.73,12.27,81.3,775.67,270.2
2020-11-12,16:15:00,DRY,2.75,11.55,81.5,775.50,309.2
2020-11-12,16:20:00,DRY,2.50,11.60,82.0,775.00,308.2
2020-11-12,16:25:00,DRY,3.75,11.50,82.5,775.00,264.4
2020-11-12,16:30:00,DRY,3.87,11.37,82.7,775.33,204.4
2020-11-12,16:35:00,DRY,4.15,11.30,81.5,775.00,176.1
2020-11-12,16:40:00,DRY,3.13,11.53,77.7,775.00,174.6
2020-11-12,16:45:00,DRY,3.40,12.05,74.0,776.00,176.6
2020-11-12,16:50:00,DRY,3.83,12.27,70.3,776.00,199.7
2020-11-12,16:55:00,DRY,4.30,12.40,67.5,776.00,209.3
2020-11-12,17:00:00,DRY,3.20,12.70,61.7,776.00,366.9
2020-11-12,17:05:00,DRY,3.60,12.95,65.0,776.00,282.2
2020-11-12,17:10:00,DRY,3.30,12.77,65.0,776.00,153.6
2020-11-12,17:15:00,DRY,2.50,12.65,67.0,776.00,207.6
2020-11-12,17:20:00,DRY,4.77,12.43,68.0,776.00,134.2
2020-11-12,17:25:00,DRY,2.60,12.30,66.5,776.00,57.3
2020-11-12,17:30:00,DRY,4.00,12.10,65.0,776.00,51.3
2020-11-12,17:35:00,DRY,2.75,11.90,64.5,776.00,48.0
2020-11-12,17:40:00,DRY,4.17,11.60,71.3,776.00,47.6
2020-11-12,17:45:00,DRY,3.70,11.20,75.5,776.00,32.5
2020-11-12,17:50:00,DRY,4.37,10.77,83.7,776.00,26.7
2020-11-12,17:55:00,DRY,4.15,10.50,85.5,776.00,23.6
2020-11-12,18:00:00,DRY,4.03,10.43,83.7,776.00,17.1
2020-11-12,18:05:00,DRY,4.15,10.50,83.0,776.00,10.4
2020-11-12,18:10:00,DRY,3.20,10.67,79.7,776.00,7.6
2020-11-12,18:15:00,DRY,2.60,11.30,73.5,776.00,5.3
2020-11-12,18:20:00,DRY,2.83,11.57,71.0,776.00,3.6
2020-11-12,18:25:00,DRY,4.75,12.00,68.5,776.00,2.0
2020-11-12,18:30:00,DRY,3.23,12.27,67.0,776.00,1.2
2020-11-12,18:35:00,DRY,3.15,12.40,66.0,776.00,1.2
2020-11-12,18:40:00,DRY,4.53,12.23,67.7,776.00,1.4
2020-11-12,18:45:00,DRY,3.95,12.10,67.0,776.00,1.4
2020-11-12,18:50:00,DRY,4.37,11.83,68.3,776.00,1.3
2020-11-12,18:55:00,DRY,4.10,11.55,69.5,776.00,1.1
2020-11-12,19:00:00,DRY,4.20,12.03,68.0,776.00,0.9
2020-11-12,19:05:00,DRY,4.05,12.20,67.0,776.00,0.9
2020-11-12,19:10:00,DRY,4.17,12.17,66.7,776.00,1.2
2020-11-12,19:15:00,DRY,4.05,12.15,66.5,776.00,1.4
2020-11-12,19:20:00,DRY,3.83,12.10,67.3,776.00,1.2
2020-11-12,19:25:00,DRY,2.05,11.90,66.5,776.00,0.8
2020-11-12,19:30:00,DRY,3.60,11.97,67.3,776.00,1.3
2020-11-12,19:35:00,DRY,4.80,12.25,67.5,776.00,1.3
2020-11-12,19:40:00,DRY,4.63,12.27,67.3,776.00,1.7
2020-11-12,19:45:00,DRY,3.35,12.10,68.0,776.00,1.5
2020-11-12,19:50:00,DRY,4.20,11.97,68.0,776.00,1.2
2020-11-12,19:55:00,DRY,3.35,11.65,67.5,776.00,0.8
2020-11-12,20:00:00,DRY,3.90,11.57,69.3,776.00,1.2
2020-11-12,20:05:00,DRY,3.55,12.10,69.0,776.00,1.4
2020-11-12,20:10:00,DRY,5.23,12.17,69.0,776.00,1.2
2020-11-12,20:15:00,DRY,2.90,12.10,70.0,776.00,1.6
2020-11-12,20:20:00,DRY,4.03,12.10,68.7,776.00,1.0
2020-11-12,20:25:00,DRY,3.10,12.05,68.5,776.00,1.4
2020-11-12,20:30:00,DRY,3.47,12.33,66.0,776.00,0.9
2020-11-12,20:35:00,DRY,4.00,12.50,65.0,776.00,0.9
2020-11-12,20:40:00,DRY,3.87,12.37,67.3,776.00,0.7
2020-11-12,20:45:00,DRY,2.85,12.40,67.5,776.00,0.7
2020-11-12,20:50:00,DRY,3.00,12.30,67.3,776.33,1.1
2020-11-12,20:55:00,DRY,3.30,12.40,67.0,776.50,1.3
2020-11-12,21:00:00,DRY,3.77,12.27,69.7,776.67,1.1
2020-11-12,21:05:00,DRY,3.60,12.20,69.5,776.50,0.9
2020-11-12,21:10:00,DRY,3.67,12.33,68.7,776.33,1.5
2020-11-12,21:15:00,DRY,3.45,12.15,69.0,777.00,1.2
2020-11-12,21:20:00,DRY,3.40,12.10,69.0,777.00,1.4
2020-11-12,21:25:00,DRY,4.95,12.20,68.5,777.00,1.3
2020-11-12,21:30:00,DRY,3.47,12.27,68.3,777.00,1.2
2020-11-12,21:35:00,DRY,4.95,12.20,69.5,776.50,1.3
2020-11-12,21:40:00,DRY,3.93,12.23,69.3,777.00,1.3
2020-11-12,21:45:00,DRY,5.70,12.30,68.0,776.50,1.0
2020-11-12,21:50:00,DRY,4.73,12.33,68.0,777.00,0.8
2020-11-12,21:55:00,DRY,5.35,12.40,67.5,777.00,1.5
2020-11-12,22:00:00,DRY,3.80,12.40,67.3,777.00,1.3
2020-11-12,22:05:00,DRY,2.75,12.40,68.0,777.00,0.7
2020-11-12,22:10:00,DRY,3.67,12.30,68.0,777.00,1.1
2020-11-12,22:15:00,DRY,3.55,12.30,68.5,777.00,0.6
2020-11-12,22:20:00,DRY,3.53,12.23,68.3,777.00,0.7
2020-11-12,22:25:00,DRY,3.25,12.05,65.5,777.00,1.0
2020-11-12,22:30:00,DRY,3.00,11.87,68.7,777.00,1.6
2020-11-12,22:35:00,DRY,2.25,12.05,69.0,777.00,1.0
2020-11-12,22:40:00,DRY,3.60,12.27,68.0,777.00,1.1
2020-11-12,22:45:00,DRY,3.85,12.20,68.0,777.00,1.4
2020-11-12,22:50:00,DRY,3.47,12.23,67.3,777.00,0.8
2020-11-12,22:55:00,DRY,2.55,12.35,66.5,777.00,1.5
2020-11-12,23:00:00,DRY,4.10,12.40,66.3,777.00,1.0
2020-11-12,23:05:00,DRY,3.40,12.25,67.0,777.00,1.4
2020-11-12,23:10:00,DRY,3.90,12.10,67.0,776.00,1.0
2020-11-12,23:15:00,DRY,4.75,12.10,68.0,777.00,1.4
2020-11-12,23:20:00,DRY,4.60,12.17,67.3,777.00,1.4
2020-11-12,23:25:00,DRY,3.15,12.30,66.5,777.00,1.5
2020-11-12,23:30:00,DRY,3.07,12.33,66.7,776.67,1.7
2020-11-12,23:35:00,DRY,3.70,12.40,66.0,777.00,1.4
2020-11-12,23:40:00,DRY,3.63,12.37,66.0,776.67,1.3
2020-11-12,23:45:00,DRY,3.80,12.35,66.0,776.50,1.6
2020-11-12,23:50:00,DRY,3.57,12.37,66.0,776.67,1.2
2020-11-12,23:55:00,DRY,2.85,12.35,66.0,777.00,1.5
2020-11-13,00:00:00,DRY,4.07,12.23,66.0,777.00,1.5
2020-11-13,00:05:00,DRY,3.50,11.75,66.5,777.00,1.2
2020-11-13,00:10:00,DRY,3.47,11.70,65.7,776.67,1.4
2020-11-13,00:15:00,DRY,3.50,11.80,67.0,776.00,1.1
2020-11-13,00:20:00,DRY,2.83,12.10,66.3,776.00,1.8
2020-11-13,00:25:00,DRY,4.05,12.25,66.0,776.00,1.1
2020-11-13,00:30:00,DRY,2.60,12.37,66.0,776.00,0.9
2020-11-13,00:35:00,DRY,4.15,12.40,66.0,777.00,1.2
2020-11-13,00:40:00,DRY,3.07,12.43,65.7,776.33,1.7
2020-11-13,00:45:00,DRY,2.65,12.50,65.0,777.00,1.1
2020-11-13,00:50:00,DRY,2.70,12.50,65.3,776.33,1.2
2020-11-13,00:55:00,DRY,3.20,12.60,65.0,776.50,1.2
2020-11-13,01:00:00,DRY,2.90,12.43,65.0,776.67,1.8
2020-11-13,01:05:00,DRY,3.75,12.35,66.0,777.00,1.0
2020-11-13,01:10:00,DRY,3.57,12.47,65.0,777.00,1.6
2020-11-13,01:15:00,DRY,3.30,12.35,66.0,776.00,0.9
2020-11-13,01:20:00,DRY,2.73,12.37,66.3,776.00,0.9
2020-11-13,01:25:00,DRY,3.60,12.35,66.0,776.00,1.5
2020-11-13,01:30:00,DRY,1.90,12.23,67.0,776.00,2.2
2020-11-13,01:35:00,DRY,3.40,12.30,66.5,776.00,1.2
2020-11-13,01:40:00,DRY,2.90,12.40,66.0,776.00,1.2
2020-11-13,01:45:00,DRY,4.15,12.45,66.0,776.00,1.4
2020-11-13,01:50:00,DRY,3.33,12.47,66.0,776.00,1.3
2020-11-13,01:55:00,DRY,2.60,12.40,66.0,776.00,1.7
2020-11-13,02:00:00,WET,3.07,12.07,67.3,776.00,0.8
2020-11-13,02:05:00,DRY,3.05,11.55,68.5,776.00,1.1
2020-11-13,02:10:00,DRY,2.57,11.17,70.0,776.00,2.1
2020-11-13,02:15:00,DRY,2.85,11.40,69.0,776.00,1.4
2020-11-13,02:20:00,DRY,2.17,11.23,69.0,776.00,1.7
2020-11-13,02:25:00,DRY,2.40,11.55,70.0,776.00,1.6
2020-11-13,02:30:00,DRY,3.10,12.03,68.0,776.00,2.0
2020-11-13,02:35:00,DRY,3.75,12.30,66.0,776.00,1.0
2020-11-13,02:40:00,DRY,3.30,12.33,66.0,775.67,1.4
2020-11-13,02:45:00,DRY,2.90,12.30,66.0,776.00,0.9
2020-11-13,02:50:00,DRY,2.13,12.13,66.0,776.00,0.6
2020-11-13,02:55:00,DRY,2.10,11.35,66.5,776.00,0.9
2020-11-13,03:00:00,DRY,1.43,11.23,67.0,776.00,1.5
2020-11-13,03:05:00,DRY,1.10,11.35,68.0,776.00,2.5
2020-11-13,03:10:00,WET,2.30,11.27,70.0,776.00,1.5
2020-11-13,03:15:00,WET,2.30,10.75,72.0,776.00,1.7
2020-11-13,03:20:00,WET,2.73,10.53,75.0,776.00,1.2
2020-11-13,03:25:00,WET,1.65,10.10,75.5,776.00,1.5
2020-11-13,03:30:00,WET,3.10,10.70,79.0,775.67,1.4
2020-11-13,03:35:00,DRY,3.30,11.30,74.5,775.00,0.9
2020-11-13,03:40:00,DRY,1.93,11.40,73.0,776.00,1.1
2020-11-13,03:45:00,WET,5.20,11.00,75.5,776.00,1.4
2020-11-13,03:50:00,WET,3.10,10.17,74.3,776.00,1.3
2020-11-13,03:55:00,DRY,2.25,9.85,80.0,775.00,1.8
2020-11-13,04:00:00,DRY,2.53,10.33,78.7,775.00,1.2
2020-11-13,04:05:00,DRY,3.35,10.60,78.0,775.00,1.5
2020-11-13,04:10:00,DRY,3.10,10.33,76.7,775.67,1.4
2020-11-13,04:15:00,DRY,3.45,10.15,74.5,775.50,0.8
2020-11-13,04:20:00,DRY,2.17,10.17,72.7,775.67,1.4
2020-11-13,04:25:00,DRY,2.60,9.95,72.0,775.50,1.2
2020-11-13,04:30:00,DRY,1.53,9.87,71.3,775.67,1.1
2020-11-13,04:35:00,WET,3.70,9.85,69.5,775.00,1.5
2020-11-13,04:40:00,WET,5.00,9.90,62.0,775.00,1.6
2020-11-13,04:45:00,WET,4.10,9.80,59.0,775.00,2.0
2020-11-13,04:50:00,WET,5.83,9.50,53.0,775.33,1.4
2020-11-13,04:55:00,WET,5.35,9.20,59.0,775.00,1.6
2020-11-13,05:00:00,WET,4.13,8.97,55.3,775.00,1.2
2020-11-13,05:05:00,WET,3.85,9.55,79.5,775.00,1.1
2020-11-13,05:10:00,DRY,3.77,10.57,77.7,775.00,1.3
2020-11-13,05:15:00,WET,3.50,10.55,75.0,775.00,0.9
2020-11-13,05:20:00,WET,5.23,10.53,74.0,775.00,1.3
2020-11-13,05:25:00,WET,3.55,10.50,68.5,775.00,1.4
2020-11-13,05:30:00,DRY,4.20,9.97,69.3,775.00,1.4
2020-11-13,05:35:00,DRY,4.95,9.75,51.0,775.00,2.1
2020-11-13,05:40:00,WET,4.97,9.33,51.7,775.00,0.9
2020-11-13,05:45:00,WET,6.35,8.95,60.0,775.00,2.1
2020-11-13,05:50:00,WET,6.00,8.67,63.0,775.00,1.4
2020-11-13,05:55:00,WET,5.85,8.40,67.5,775.00,2.5
2020-11-13,06:00:00,WET,6.60,8.10,74.3,775.00,1.2
2020-11-13,06:05:00,WET,5.50,9.30,75.0,775.00,1.2
2020-11-13,06:10:00,WET,7.90,10.23,71.7,775.00,1.1
2020-11-13,06:15:00,DRY,5.10,10.50,73.0,775.00,1.4
2020-11-13,06:20:00,DRY,5.03,10.70,72.7,774.33,1.2
2020-11-13,06:25:00,DRY,4.00,10.75,75.5,775.00,1.2
2020-11-13,06:30:00,DRY,4.57,10.67,76.3,775.00,1.3
2020-11-13,06:35:00,DRY,4.35,10.90,73.0,775.00,1.5
2020-11-13,06:40:00,DRY,4.60,11.17,71.3,775.00,1.7
2020-11-13,06:45:00,DRY,2.30,10.75,74.0,775.00,1.9
2020-11-13,06:50:00,WET,1.33,10.13,75.7,775.00,1.2
2020-11-13,06:55:00,WET,2.85,10.10,63.0,775.00,1.8
2020-11-13,07:00:00,DRY,4.70,9.90,54.7,775.00,1.2
2020-11-13,07:05:00,DRY,2.05,9.70,50.0,775.00,1.2
2020-11-13,07:10:00,DRY,6.43,9.77,46.0,775.00,1.4
2020-11-13,07:15:00,DRY,8.00,9.85,38.5,775.00,1.1
2020-11-13,07:20:00,DRY,10.00,10.20,30.7,774.67,1.3
2020-11-13,07:25:00,DRY,10.10,10.25,28.0,775.00,1.6
2020-11-13,07:30:00,DRY,7.87,10.13,32.3,775.00,2.3
2020-11-13,07:35:00,DRY,8.30,9.75,31.0,775.00,3.8
2020-11-13,07:40:00,DRY,7.93,10.37,23.3,775.00,3.2
2020-11-13,07:45:00,DRY,9.10,10.50,25.5,775.00,3.9
2020-11-13,07:50:00,DRY,8.27,10.93,22.3,775.00,5.9
2020-11-13,07:55:00,DRY,8.50,11.15,27.5,775.00,9.1
2020-11-13,08:00:00,DRY,8.27,11.30,34.7,775.00,18.8
2020-11-13,08:05:00,DRY,5.55,11.55,35.5,775.00,30.6
2020-11-13,08:10:00,DRY,6.50,11.50,27.7,775.00,36.1
2020-11-13,08:15:00,DRY,9.55,11.30,24.0,775.00,44.8
2020-11-13,08:20:00,DRY,7.90,11.03,19.3,775.00,52.4
2020-11-13,08:25:00,DRY,6.90,10.85,17.0,775.00,64.1
2020-11-13,08:30:00,DRY,5.90,10.73,18.3,775.00,69.2
2020-11-13,08:35:00,DRY,9.25,10.70,17.0,775.00,82.2
2020-11-13,08:40:00,DRY,6.93,10.70,17.3,775.00,83.8
2020-11-13,08:45:00,DRY,6.40,10.60,17.0,775.00,95.7
2020-11-13,08:50:00,DRY,8.97,10.40,19.7,775.00,102.5
2020-11-13,08:55:00,DRY,6.20,10.25,20.5,775.00,121.4
2020-11-13,09:00:00,DRY,6.77,10.30,21.0,775.00,123.2
2020-11-13,09:05:00,DRY,4.70,10.35,22.0,775.00,147.0
2020-11-13,09:10:00,DRY,8.37,10.20,23.3,775.00,166.2
2020-11-13,09:15:00,DRY,6.00,10.15,24.5,775.00,161.6
2020-11-13,09:20:00,DRY,7.70,10.10,27.7,775.00,172.8
2020-11-13,09:25:00,DRY,9.75,10.00,29.0,775.00,195.4
2020-11-13,09:30:00,DRY,7.97,10.00,30.7,775.00,223.2
2020-11-13,09:35:00,DRY,7.30,10.20,29.5,775.00,210.4
2020-11-13,09:40:00,DRY,6.40,10.53,28.3,775.00,212.1
2020-11-13,09:45:00,DRY,8.90,10.25,29.0,775.00,221.1
2020-11-13,09:50:00,DRY,6.07,10.33,29.7,775.33,283.6
2020-11-13,09:55:00,DRY,7.90,10.65,27.5,776.00,403.6
2020-11-13,10:00:00,DRY,5.13,10.43,32.0,776.00,431.1
2020-11-13,10:05:00,DRY,3.85,10.40,30.5,776.00,389.9
2020-11-13,10:10:00,DRY,4.90,10.33,32.7,776.00,362.9
2020-11-13,10:15:00,DRY,5.15,10.30,32.0,776.00,323.4
2020-11-13,10:20:00,DRY,4.63,10.30,33.3,776.00,329.6
2020-11-13,10:25:00,DRY,5.70,10.25,32.5,776.00,355.7
2020-11-13,10:30:00,DRY,7.13,10.20,34.3,776.00,343.1
2020-11-13,10:35:00,DRY,7.95,10.25,35.5,776.00,370.8
2020-11-13,10:40:00,DRY,5.60,10.23,34.3,775.67,371.7
2020-11-13,10:45:00,DRY,5.95,10.25,34.0,776.00,362.9
2020-11-13,10:50:00,DRY,4.97,10.17,35.7,776.00,395.4
2020-11-13,10:55:00,DRY,6.60,10.25,37.0,776.00,475.6
2020-11-13,11:00:00,DRY,4.33,10.17,37.0,775.67,435.8
2020-11-13,11:05:00,DRY,8.20,10.25,37.5,775.50,528.8
2020-11-13,11:10:00,DRY,6.67,10.20,38.3,775.67,538.0
2020-11-13,11:15:00,DRY,8.35,10.25,37.5,775.00,641.4
2020-11-13,11:20:00,DRY,7.40,10.17,38.7,775.00,522.2
2020-11-13,11:25:00,DRY,8.05,10.20,39.5,775.00,414.2
2020-11-13,11:30:00,DRY,6.37,10.43,38.7,775.00,677.4
2020-11-13,11:35:00,DRY,7.05,10.20,39.0,775.00,325.0
2020-11-13,11:40:00,DRY,7.03,10.17,39.7,775.00,498.0
2020-11-13,11:45:00,DRY,7.00,10.30,41.0,775.00,748.4
2020-11-13,11:50:00,DRY,7.63,10.50,39.7,775.00,791.8
2020-11-13,11:55:00,DRY,7.60,10.80,39.0,775.00,911.6
2020-11-13,12:00:00,DRY,5.27,10.93,39.7,775.00,880.5
2020-11-13,12:05:00,DRY,7.20,10.95,39.5,775.00,906.5
2020-11-13,12:10:00,DRY,8.23,10.93,40.7,775.00,903.5
2020-11-13,12:15:00,DRY,8.05,10.95,37.5,775.00,906.4
2020-11-13,12:20:00,DRY,6.27,10.97,37.0,775.00,891.5
2020-11-13,12:25:00,DRY,5.80,11.30,37.5,775.00,901.5
2020-11-13,12:30:00,DRY,5.13,11.50,35.0,775.00,904.3
2020-11-13,12:35:00,DRY,8.90,11.45,37.5,775.00,266.4
2020-11-13,12:40:00,DRY,6.53,10.90,37.3,775.00,568.3
2020-11-13,12:45:00,DRY,4.45,11.20,38.5,775.00,609.0
2020-11-13,12:50:00,DRY,8.00,10.87,41.0,774.67,846.0
2020-11-13,12:55:00,DRY,4.80,10.75,43.0,774.50,876.5
2020-11-13,13:00:00,DRY,7.83,10.87,42.3,774.00,864.8
2020-11-13,13:05:00,DRY,8.25,10.75,44.0,774.50,868.0
2020-11-13,13:10:00,DRY,8.87,10.70,47.0,774.00,893.2
2020-11-13,13:15:00,DRY,8.15,10.80,42.5,774.50,870.8
2020-11-13,13:20:00,DRY,8.50,10.73,44.0,774.00,862.6
2020-11-13,13:25:00,DRY,7.05,10.55,45.0,774.00,754.8
2020-11-13,13:30:00,DRY,11.20,10.50,46.0,774.00,848.4
2020-11-13,13:35:00,DRY,7.00,10.80,44.0,774.00,839.6
2020-11-13,13:40:00,DRY,9.23,10.60,46.0,774.00,838.8
2020-11-13,13:45:00,DRY,6.65,10.75,50.0,774.00,827.6
2020-11-13,13:50:00,DRY,8.87,10.73,51.7,774.00,822.1
2020-11-13,13:55:00,DRY,5.65,10.90,51.5,774.00,817.2
2020-11-13,14:00:00,DRY,7.40,10.97,50.0,774.00,808.0
2020-11-13,14:05:00,DRY,7.10,11.20,50.5,774.00,799.5
2020-11-13,14:10:00,DRY,7.60,11.27,50.0,774.00,788.2
2020-11-13,14:15:00,DRY,8.35,11.35,51.0,774.00,777.6
2020-11-13,14:20:00,DRY,8.47,11.53,49.3,774.00,767.6
2020-11-13,14:25:00,DRY,5.90,11.40,49.5,774.00,759.6
2020-11-13,14:30:00,DRY,7.40,11.15,48.5,774.00,750.5
2020-11-13,14:35:00,DRY,6.90,11.05,49.0,774.00,744.5
2020-11-13,14:40:00,DRY,6.43,10.97,50.7,774.00,751.2
2020-11-13,14:45:00,DRY,7.45,11.35,52.0,774.00,597.9
2020-11-13,14:50:00,DRY,5.97,11.03,54.7,774.00,605.4
2020-11-13,14:55:00,DRY,5.90,10.70,55.5,774.00,294.6
2020-11-13,15:00:00,DRY,5.30,10.70,56.7,774.00,731.2
2020-11-13,15:05:00,DRY,5.45,10.40,60.5,774.00,513.1
2020-11-13,15:10:00,DRY,5.33,10.40,59.3,774.00,749.9
2020-11-13,15:15:00,DRY,4.85,10.65,51.5,774.00,725.6
2020-11-13,15:20:00,DRY,4.47,11.17,54.3,774.00,677.6
2020-11-13,15:25:00,DRY,4.05,11.35,53.0,774.00,277.1
2020-11-13,15:30:00,DRY,5.23,11.00,56.7,774.00,657.4
2020-11-13,15:35:00,DRY,7.35,10.95,55.5,774.00,615.5
2020-11-13,15:40:00,DRY,6.67,10.67,55.0,774.00,585.4
2020-11-13,15:45:00,DRY,7.65,11.00,56.0,774.00,589.0
2020-11-13,15:50:00,DRY,6.70,10.67,56.0,774.00,618.4
2020-11-13,15:55:00,DRY,8.80,10.65,56.5,774.00,402.6
2020-11-13,16:00:00,DRY,9.17,10.60,56.0,774.00,134.7
2020-11-13,16:05:00,DRY,6.00,10.15,58.0,774.00,99.0
2020-11-13,16:10:00,DRY,8.17,10.13,59.7,773.67,168.4
2020-11-13,16:15:00,DRY,9.30,10.20,60.0,773.50,335.1
2020-11-13,16:20:00,DRY,9.27,10.07,61.3,773.33,107.1